Regional Weather Roundup
Issued by NWS Albany, NY

Home | Current Version | Previous Version | Graphics & Text | Print | Product List | Glossary On
Versions: 1 2 3 4 5 6 7 8 9 10 11 12 13 14 15 16 17 18 19 20 21 22 23 24 25 26 27 28 29 30 31 32 33 34 35 36 37 38 39 40 41 42 43 44 45 46 47 48 49 50
000
ASUS41 KALY 271710
RWRALY

NEW YORK STATE HOURLY WEATHER ROUNDUP
NATIONAL WEATHER SERVICE ALBANY NY
100 PM EDT MON JUL 27 2015

NOTE: "FAIR" INDICATES FEW OR NO CLOUDS BELOW 12,000 FEET WITH NO
SIGNIFICANT WEATHER AND/OR NO OBSTRUCTIONS TO VISIBILITY.

NYZ032-033-038>043-046>054-057>066-NYZ062>081-271800-
EAST


CITY           SKY/WX    TMP DP  RH WIND       PRES   REMARKS
ALBANY         MOSUNNY   84  63  49 CALM      30.00F
GLENS FALLS    SUNNY     80  68  66 S3        30.00F
POUGHKEEPSIE   MOSUNNY   84  66  54 CALM      30.00F
NEWBURGH       MOSUNNY   82  66  57 CALM      30.03F
MONTGOMERY     SUNNY     84  68  58 SW7       30.01F
WHITE PLAINS   PTSUNNY   79  68  69 SE8       30.03F
ISLIP          PTSUNNY   83  64  52 S12G18    30.03F
NEW YORK CITY  PTSUNNY   84  66  54 S9        30.01F
CENTRAL PARK   MOSUNNY   85  66  53 CALM      30.05F
$$

NYZ005>009-017-018-044>046-055-056-271800-
CENTRAL


CITY           SKY/WX    TMP DP  RH WIND       PRES   REMARKS
FULTON         SUNNY     85  66  53 NW9       30.02F
SYRACUSE       MOSUNNY   85  65  51 VRB6      30.01F
ROME           SUNNY     82  66  58 VRB3      30.02F
ELMIRA         SUNNY     82  66  58 CALM      30.03S
BINGHAMTON     SUNNY     78  62  57 E6        30.06F
MONTICELLO     CLOUDY    73  68  83 SW3       30.08S
$$

NYZ026>034-041>043-271800-
NORTH


CITY           SKY/WX    TMP DP  RH WIND       PRES   REMARKS
WATERTOWN      SUNNY     82  65  56 W10G16    30.00F
FORT DRUM      NOT AVBL
MASSENA        SUNNY     84  68  58 W8        29.97F
SARANAC LAKE   MOSUNNY   80  62  54 SW7       30.03F
PLATTSBURGH    SUNNY     79  70  74 SE12      29.97F
$$

NYZ001>004-010>016-019>021-271800-
WEST


CITY           SKY/WX    TMP DP  RH WIND       PRES   REMARKS
NIAGARA FALLS  MOSUNNY   85  60  42 CALM      30.02F
BUFFALO        MOSUNNY   86  59  39 CALM      30.03S
DUNKIRK        SUNNY     82  64  54 NW9       30.04S
JAMESTOWN      SUNNY     79  57  47 E3        30.09S
WELLSVILLE     SUNNY     82  56  40 NE9       30.11S
ROCHESTER      MOSUNNY   85  62  46 W3        30.02F
PENN YAN       SUNNY     82  65  56 CALM      30.05S
$$

             KEY
       WCI = WIND CHILL INDEX
       VSB = VISIBILITY
       HX  = HEAT INDEX
$$


USA.gov is the U.S. government's official web portal to all federal, state and local government web resources and services.